Find Starlink 11729

NORAD ID: 64073 Int'l Des: 2025-107 Owner: SPXS Country: US Constellation: starlink operational
又名: STARLINK-11729 [DTC] celestrak
LEOCIRCULAR

当前视图

正在加载3D地球...

About Starlink 11729

Starlink 11729 (NORAD 64073) is a starlink constellation satellite (v2 mini d2c) launched May 21, 2025 by SPXS of US. It operates in LEO, CIRCULAR orbit with a mass of 960.00 kg.

即将过境

Passes for default location (London). Set your location on the main map for personalized predictions.

高度历史

Loading altitude history...

两行轨道根数

1 64073U 25107K 26263.00481874 .00126977 00000-0 97563-3 0 9991
2 64073 43.0007 7.4243 0001572 283.1701 76.8992 15.70897857 77858
Epoch: Sep 20, 2026 • Age: 17 hours

当前状态

高度 356.0 km
远地点 / 近地点 N/A
速度 7.70 km/s
星下点 20.56°N, 103.12°W
发射日期 May 21, 2025
运行时间 1.3 years
类型 internet

技术详情

分类 Payload
质量 960.00 kg
干质量 910.00 kg
长度 0.30 m
跨度 29.00 m
形状 ? Box + pan
制造商 SPXS
平台类型 Starlink V2MD
阶段状态 In Orbit
所有者/国家 SPXS/US

Most Searched